This is the latest recevied weather packets stored in our database for station/object KM6RDV. If no packets are shown the sender has not sent any weather packets the latest 10 day(s).
| Time | Temp. | Humidity | Pressure | Rain* | Wind** | Luminosity | Snow |
|---|---|---|---|---|---|---|---|
| 1778166019 | 12.78° C | 84% | 1022.4 hPa | 0 mm | - | 85 W/m² | - |
| 1778165421 | 12.78° C | 84% | 1022.6 hPa | 0 mm | - | 72 W/m² | - |
| 1778164237 | 12.78° C | 84% | 1022.4 hPa | 0 mm | - | 50 W/m² | - |
| 1778163037 | 12.78° C | 84% | 1022.3 hPa | 0 mm | - | 32 W/m² | - |
| 1778161841 | 12.78° C | 84% | 1022.1 hPa | 0 mm | - | 17 W/m² | - |
| 1778159416 | 12.78° C | 84% | 1022 hPa | 0 mm | - | 1 W/m² | - |
| 1778157022 | 12.78° C | 84% | 1021.8 hPa | 0 mm | - | 0 W/m² | - |
| 1778156439 | 12.78° C | 84% | 1022 hPa | 0 mm | - | 0 W/m² | - |
| 1778153417 | 12.78° C | 83% | 1022 hPa | 0 mm | - | 0 W/m² | - |
| 1778152820 | 12.78° C | 83% | 1022.1 hPa | 0 mm | - | 0 W/m² | - |
| 1778149219 | 12.78° C | 83% | 1022.1 hPa | 0 mm | - | 0 W/m² | - |
| 1778148620 | 12.78° C | 83% | 1021.9 hPa | 0 mm | - | 0 W/m² | - |
| 1778145017 | 13.33° C | 83% | 1022.2 hPa | 0 mm | - | 0 W/m² | - |
| 1778144416 | 13.33° C | 84% | 1022.3 hPa | 0 mm | - | 0 W/m² | - |
| 1778142626 | 13.33° C | 84% | 1022.5 hPa | 0 mm | - | 0 W/m² | - |
| 1778137218 | 13.33° C | 84% | 1022.6 hPa | 0 mm | - | 0 W/m² | - |
| 1778136018 | 13.33° C | 83% | 1022.6 hPa | 0 mm | - | 0 W/m² | - |
| 1778134816 | 13.33° C | 83% | 1022.5 hPa | 0 mm | - | 0 W/m² | - |
| 1778133619 | 13.33° C | 82% | 1022.4 hPa | 0 mm | - | 0 W/m² | - |
| 1778130017 | 13.89° C | 81% | 1022.4 hPa | 0 mm | - | 0 W/m² | - |
| 1778129440 | 13.89° C | 80% | 1022.4 hPa | 0 mm | - | 0 W/m² | - |
| 1778128224 | 14.44° C | 80% | 1022.3 hPa | 0 mm | - | 0 W/m² | - |
| 1778126419 | 14.44° C | 79% | 1022 hPa | 0 mm | - | 0 W/m² | - |
| 1778125820 | 14.44° C | 79% | 1021.8 hPa | 0 mm | - | 0 W/m² | - |
| 1778122219 | 15.56° C | 75% | 1021.3 hPa | 0 mm | - | 17 W/m² | - |
* Rain latest hour (hover to see other rain measurements)
** Current wind speed in m/s (hover to see current wind gust speed)